sat.trackr.live / text

‹ back to catalog

STARLINK-30326

NORAD 57639 · 2023-122H

PAYLOAD ACTIVE UNKNOWN

§ Identity

Operator
Country
US
Launch date
2023-08-17
Launch site
AFETR
Launch vehicle
Mass (kg)
RCS (m²)

Purposes: comms

External: N2YO · Heavens-Above · Gunter

§ Orbital elements

Epoch: 2026-05-25T00:57:29.911392Z

Period
94.27 min
Inclination
43.0067°
Eccentricity
0.0001714
Mean motion
15.27574019 rev/d
Perigee alt
481.9 km
Apogee alt
484.2 km
Semi-major
6,861.2 km
B*
7.0195e-5
RAAN
21.3149°
Arg perigee
255.0811°
Mean anomaly
104.9850°
Rev number
15,388

§ Raw data

STARLINK-303261 57639U 23122H   26145.03992953  .00001669  00000+0  70195-4 0  99952 57639  43.0067  21.3149 0001714 255.0811 104.9850 15.27574019153880

JSON: /api/v1/satellites/57639 · /tle

For live sub-satellite position, see the globe view (requires WebGL).

§ Visibility from observer

Set your observer location to see the next 7 days of passes ≥ 10°. The values pass through the URL so the page stays shareable.

No JS? Fill the form by hand. The geolocation button needs JavaScript.